Location: Hylvaty SDH
(49.9612°N, 16.4057°E)
Time: 12:35:00
(UTC+01:00)

A-11 Canister half - Pass Details

Date: 02 October 2020
Orbit: 1526 x 1683 km, 47.3° (Epoch: 28 October)

Event Time Altitude Azimuth Distance (km) Brightness Sun altitude
Rises 21:31:13 0° 209° (SSW) 4,668 11.5 -28.8°
Reaches altitude 10° 21:34:35 10° 201° (SSW) 3,684 10.9 -29.3°
Enters shadow 21:37:18 20° 189° (S) 2,987 10.3 -29.6°
Maximum altitude 21:42:36 35° 140° (SE) 2,296 - -30.4°
Drops below altitude 10° 21:50:44 10° 80° (E) 3,734 - -31.4°
Sets 21:54:09 0° 72° (ENE) 4,738 - -31.9°
